This demonstration page uses our WeatherBlox Daily Observations layout. Learn more.

36.17497, -115.13722

Hourly Observations for October 15, 2018

Temp ( °F °C ) Dew Point ( °F °C ) Humidity (%) Winds ( mph kmh ) Pressure ( in mb ) Visibility ( mi km ) Precip ( " mm )
12:53 am 00:53 Clear 55 12.8 6 -14.4 14 14 N 14 22 30.24 1024 10 16.09344 0 0
1:53 am 01:53 Clear 54 12.2 7 -13.9 15 15 N 20 31 30.24 1024 10 16.09344 0 0
2:53 am 02:53 Clear 53 11.7 8 -13.3 16 16 N 13 20 30.24 1024 10 16.09344 0 0
3:53 am 03:53 Clear 52 11.1 7 -13.9 16 16 NNW 17 28 30.24 1024 10 16.09344 0 0
4:53 am 04:53 Clear 52 11.1 5 -15 15 15 NNW 22 35 30.24 1024 10 16.09344 0 0
5:53 am 05:53 Clear 52 11.1 5 -15 15 15 NNW 18 30 30.27 1025 10 16.09344 0 0
6:53 am 06:53 Sunny 51 10.6 5 -15 15 15 N 18 30 30.3 1026 10 16.09344 0 0
7:53 am 07:53 Sunny 52 11.1 6 -14.4 15 15 N 21 33 30.3 1026 10 16.09344 0 0
8:53 am 08:53 Sunny 54 12.2 6 -14.4 14 14 N 13 20 30.33 1027 10 16.09344 0 0
9:53 am 09:53 Sunny 57 13.9 6 -14.4 13 13 N 20 31 30.3 1026 10 16.09344 0 0
10:53 am 10:53 Sunny 60 15.6 5 -15 11 11 NNW 17 28 30.3 1026 10 16.09344 0 0
11:53 am 11:53 Sunny 63 17.2 5 -15 10 10 N 12 19 30.27 1025 10 16.09344 0 0
12:53 pm 12:53 Sunny 64 17.8 3 -16.1 9 9 undefined N/A 30.24 1024 10 16.09344 0 0
1:53 pm 13:53 Sunny 67 19.4 2 -16.7 7 7 ENE 22 35 30.21 1023 10 16.09344 0 0
2:53 pm 14:53 Sunny 68 20 2 -16.7 7 7 ENE 16 26 30.18 1022 10 16.09344 0 0
3:53 pm 15:53 Sunny 68 20 3 -16.1 7 7 ENE 18 30 30.18 1022 10 16.09344 0 0
4:53 pm 16:53 Sunny 68 20 3 -16.1 7 7 NE 13 20 30.15 1021 10 16.09344 0 0
5:53 pm 17:53 Sunny 65 18.3 5 -15 9 9 E 14 22 30.15 1021 10 16.09344 0 0
6:53 pm 18:53 Clear 63 17.2 5 -15 10 10 E 15 24 30.15 1021 10 16.09344 0 0
7:53 pm 19:53 Clear 62 16.7 5 -15 10 10 ENE 12 19 30.18 1022 10 16.09344 0 0
8:53 pm 20:53 Clear 61 16.1 6 -14.4 11 11 E 10 17 30.18 1022 10 16.09344 0 0
9:53 pm 21:53 Clear 60 15.6 7 -13.9 12 12 ENE 13 20 30.18 1022 10 16.09344 0 0
10:53 pm 22:53 Clear 60 15.6 7 -13.9 12 12 NE 13 20 30.18 1022 10 16.09344 0 0
11:53 pm 23:53 Clear 59 15 9 -12.8 13 13 NW 7 11 30.18 1022 10 16.09344 0 0

Powered by AerisWeather